Location: Anjeux
(47.8815°N, 6.2076°E)
Time: 21:01:32
(UTC+00:00)

Cosmos 407 Rocket - Pass Details

Date: 05 March 2021
Orbit: 744 x 786 km, 74.0° (Epoch: 20 April)

Event Time Altitude Azimuth Distance (km) Brightness Sun altitude
Rises 04:55:03 0° 190° (S) 3,209 6.6 -13.1°
Reaches altitude 10° 04:57:26 10° 187° (S) 2,281 5.8 -12.7°
Maximum altitude 05:02:31 61° 108° (ESE) 852 4.0 -11.8°
Drops below altitude 10° 05:07:35 10° 29° (NNE) 2,275 6.4 -11.0°
Sets 05:09:58 0° 26° (NNE) 3,200 7.1 -10.6°
